Weather History for KECS - October, 2013

Change the Weather History Date:

Sunday, October 6, 2013

  Actual Average (KCUT) Record (KCUT)
Temperature  
Mean Temperature 38 °F 46 °F  
Max Temperature 50 °F 58 °F - ()
Min Temperature 26 °F 33 °F - ()
Degree Days  
Heating Degree Days 27 19  
Month to date heating degree days 111  
Since 1 July heating degree days 597  
Cooling Degree Days 0 0  
Month to date cooling degree days 0  
Year to date cooling degree days 177  
Moisture  
Dew Point 31 °F    
Average Humidity 75    
Maximum Humidity 100    
Minimum Humidity 54    
Precipitation  
Precipitation 0.00 in 0.06 in - ()
Month to date precipitation 0.39  
Year to date precipitation 16.88  
Sea Level Pressure  
Sea Level Pressure 30.18 in    
Wind  
Wind Speed 7 mph (NNW)    
Max Wind Speed 17 mph    
Max Gust Speed 22 mph    
T = Trace of Precipitation, MM = Missing Value Source: NWS Daily Summary

Daily Weather History Graph

Daily Weather History Graph

Search for Another Location

Airport or City:

Trip Planner

Search our weather history database for the weather conditions in past years. The results will help you decide how hot, cold, wet, or windy it might be!

Date:

Astronomy

Oct. 06, 2013 Rise Set
Actual Time 7:01 AM MDT 6:28 PM MDT
Civil Twilight 6:32 AM MDT 6:57 PM MDT
Nautical Twilight 5:59 AM MDT 7:30 PM MDT
Astronomical Twilight 5:25 AM MDT 8:04 PM MDT
Moon 8:52 AM MDT (10/6) 7:24 PM MDT (10/6)
Length of Visible Light 12h 24m
Length of Day
11h 27m
Waxing Crescent, 4% of the Moon is Illuminated
Oct 6
Waxing Crescent
Oct 11
First Quarter
Oct 18
Full
Oct 26
Last Quarter
Nov 3
New

Hourly Weather History & Observations

Time (MDT) Temp. Windchill Dew Point Humidity Pressure Visibility Wind Dir Wind Speed Gust Speed Precip Events Conditions
12:15 AM 28.4 °F 23.3 °F 28.4 °F 100% 30.16 in - NW 4.6 mph - N/A   Unknown
12:35 AM 26.6 °F 21.2 °F 24.8 °F 93% 30.17 in - NNW 4.6 mph - N/A   Unknown
12:55 AM 30.2 °F 26.7 °F 28.4 °F 93% 30.17 in - North 3.5 mph - N/A   Unknown
1:15 AM 30.2 °F - 26.6 °F 86% 30.17 in - Calm Calm - N/A   Unknown
1:35 AM 30.2 °F - 28.4 °F 93% 30.17 in - Calm Calm - N/A   Unknown
1:55 AM 30.2 °F - 26.6 °F 86% 30.17 in - Calm Calm - N/A   Unknown
2:15 AM 32.0 °F 28.7 °F 26.6 °F 80% 30.17 in - NW 3.5 mph - N/A   Clear
2:35 AM 30.2 °F - 26.6 °F 86% 30.17 in - Calm Calm - N/A   Unknown
2:55 AM 30.2 °F 26.7 °F 26.6 °F 86% 30.17 in - WNW 3.5 mph - N/A   Unknown
3:15 AM 28.4 °F 23.3 °F 26.6 °F 93% 30.17 in - NW 4.6 mph - N/A   Unknown
3:35 AM 28.4 °F 22.2 °F 26.6 °F 93% 30.17 in - WNW 5.8 mph - N/A   Unknown
3:55 AM 28.4 °F 22.2 °F 26.6 °F 93% 30.17 in - NW 5.8 mph - N/A   Unknown
4:15 AM 28.4 °F 23.3 °F 26.6 °F 93% 30.17 in - NNW 4.6 mph - N/A   Unknown
4:35 AM 30.2 °F 21.9 °F 28.4 °F 93% 30.17 in - North 9.2 mph - N/A   Unknown
4:55 AM 32.0 °F 24.8 °F 28.4 °F 87% 30.18 in - NNW 8.1 mph - N/A   Unknown
5:15 AM 32.0 °F 26.4 °F 28.4 °F 87% 30.18 in - NNW 5.8 mph - N/A   Unknown
5:35 AM 30.2 °F 23.4 °F 28.4 °F 93% 30.19 in - WNW 6.9 mph - N/A   Unknown
5:55 AM 30.2 °F 24.3 °F 26.6 °F 86% 30.18 in - WNW 5.8 mph - N/A   Unknown
6:15 AM 32.0 °F 24.2 °F 28.4 °F 87% 30.18 in - North 9.2 mph - N/A   Unknown
6:35 AM 32.0 °F 23.0 °F 28.4 °F 87% 30.17 in - North 11.5 mph - N/A   Clear
6:55 AM 32.0 °F 22.5 °F 28.4 °F 87% 30.17 in - North 12.7 mph - N/A   Clear
7:15 AM 32.0 °F 22.1 °F 28.4 °F 87% 30.17 in - North 13.8 mph - N/A   Clear
7:35 AM 32.0 °F 22.1 °F 28.4 °F 87% 30.18 in - North 13.8 mph - N/A   Clear
7:55 AM 33.8 °F 24.8 °F 28.4 °F 81% 30.19 in - North 12.7 mph - N/A   Clear
8:15 AM 33.8 °F 25.3 °F 28.4 °F 81% 30.19 in - North 11.5 mph - N/A   Clear
8:35 AM 35.6 °F 28.6 °F 30.2 °F 81% 30.19 in - NNW 9.2 mph - N/A   Clear
8:55 AM 37.4 °F 30.3 °F 30.2 °F 75% 30.19 in - North 10.4 mph - N/A   Clear
9:15 AM 37.4 °F 32.8 °F 32.0 °F 81% 30.20 in - WNW 5.8 mph - N/A   Clear
9:35 AM 41.0 °F 36.4 °F 32.0 °F 70% 30.20 in - NW 6.9 mph - N/A   Clear
9:55 AM 41.0 °F 37.1 °F 32.0 °F 70% 30.21 in - NW 5.8 mph - N/A   Clear
10:15 AM 42.8 °F 38.6 °F 32.0 °F 66% 30.21 in - NW 6.9 mph - N/A   Clear
10:35 AM 42.8 °F 36.2 °F 32.0 °F 66% 30.22 in - NW 12.7 mph - N/A   Clear
10:55 AM 44.6 °F 38.8 °F 32.0 °F 61% 30.21 in - NW 11.5 mph - N/A   Clear
11:15 AM 44.6 °F 38.4 °F 32.0 °F 61% 30.21 in - WNW 12.7 mph - N/A   Clear
11:35 AM 44.6 °F 38.4 °F 32.0 °F 61% 30.21 in - NW 12.7 mph - N/A   Clear
11:55 AM 44.6 °F 38.1 °F 32.0 °F 61% 30.21 in - WNW 13.8 mph 17.3 mph N/A   Clear
12:15 PM 44.6 °F 38.8 °F 33.8 °F 66% 30.21 in - WNW 11.5 mph - N/A   Clear
12:35 PM 46.4 °F 41.5 °F 33.8 °F 62% 30.21 in - WNW 10.4 mph - N/A   Clear
12:55 PM 46.4 °F 40.1 °F 33.8 °F 62% 30.20 in - WNW 15.0 mph - N/A   Clear
1:15 PM 46.4 °F 40.1 °F 33.8 °F 62% 30.19 in - WNW 15.0 mph - N/A   Clear
1:35 PM 48.2 °F - 33.8 °F 58% 30.19 in - WNW 15.0 mph - N/A   Clear
1:55 PM 48.2 °F - 33.8 °F 58% 30.18 in - WNW 17.3 mph - N/A   Clear
2:15 PM 48.2 °F - 33.8 °F 58% 30.17 in - NW 17.3 mph - N/A   Clear
2:35 PM 48.2 °F - 33.8 °F 58% 30.17 in - WNW 17.3 mph 21.9 mph N/A   Clear
2:55 PM 50.0 °F - 33.8 °F 54% 30.17 in - NW 16.1 mph - N/A   Clear
3:15 PM 50.0 °F - 33.8 °F 54% 30.17 in - NW 17.3 mph - N/A   Clear
3:35 PM 50.0 °F - 33.8 °F 54% 30.17 in - NW 17.3 mph - N/A   Clear
3:55 PM 50.0 °F - 33.8 °F 54% 30.17 in - NW 15.0 mph - N/A   Clear
4:15 PM 50.0 °F - 33.8 °F 54% 30.17 in - NW 13.8 mph - N/A   Clear
4:35 PM 50.0 °F - 33.8 °F 54% 30.17 in - NW 10.4 mph - N/A   Clear
4:55 PM 50.0 °F - 35.6 °F 58% 30.17 in - NNW 8.1 mph - N/A   Clear
5:15 PM 50.0 °F - 33.8 °F 54% 30.17 in - North 8.1 mph - N/A   Clear
5:35 PM 50.0 °F - 33.8 °F 54% 30.17 in - North 5.8 mph - N/A   Clear
5:55 PM 48.2 °F - 33.8 °F 58% 30.17 in - North 5.8 mph - N/A   Clear
6:15 PM 46.4 °F 44.3 °F 32.0 °F 57% 30.17 in - North 4.6 mph - N/A   Clear
6:35 PM 46.4 °F 42.9 °F 32.0 °F 57% 30.17 in - North 6.9 mph - N/A   Clear
6:55 PM 44.6 °F 39.7 °F 32.0 °F 61% 30.17 in - North 9.2 mph - N/A   Clear
7:15 PM 41.0 °F - 32.0 °F 70% 30.17 in - Calm Calm - N/A   Clear
7:35 PM 41.0 °F - 33.8 °F 76% 30.17 in - Calm Calm - N/A   Clear
7:55 PM 41.0 °F - 32.0 °F 70% 30.17 in - Calm Calm - N/A   Clear
8:15 PM 39.2 °F - 32.0 °F 75% 30.17 in - Calm Calm - N/A   Clear
8:35 PM 39.2 °F - 32.0 °F 75% 30.17 in - Calm Calm - N/A   Clear
8:55 PM 37.4 °F - 32.0 °F 81% 30.16 in - North - - N/A   Clear
9:15 PM 37.4 °F - 32.0 °F 81% 30.17 in - Calm Calm - N/A   Clear
9:35 PM 37.4 °F - 32.0 °F 81% 30.17 in - Calm Calm - N/A   Clear
9:55 PM 37.4 °F - 32.0 °F 81% 30.16 in - Calm Calm - N/A   Clear
10:15 PM 35.6 °F - 32.0 °F 87% 30.16 in - Calm Calm - N/A   Clear
10:35 PM 35.6 °F - 32.0 °F 87% 30.16 in - Calm Calm - N/A   Unknown
10:55 PM 35.6 °F 32.8 °F 32.0 °F 87% 30.15 in - East 3.5 mph - N/A   Unknown
11:15 PM 37.4 °F 34.9 °F 32.0 °F 81% 30.15 in - NE 3.5 mph - N/A   Clear
11:35 PM 35.6 °F 29.9 °F 32.0 °F 87% 30.14 in - North 6.9 mph - N/A   Clear
11:55 PM 35.6 °F 30.7 °F 32.0 °F 87% 30.14 in - North 5.8 mph - N/A   Clear